Wind_Speed
7 7 5 5 5 5 5 7 10 11 12 12 12 11 8 6 6 8 9 10 11 11 13 15 17 17 15 13 11 10 9 7 4 1 1 2 1 1 1 1 1 1 2 4 8 11 9 8 6
10 10 9 8 7 7 7 8 9 9 10 10 10 11 11 10 9 9 10 11 12 13 15 16 17 17 16 15 14 12 11 9 6 4 2 2 3 3 3 3 3 4 5 5 6 8 7 6 6
12 12 12 10 9 9 10 11 10 9 9 8 8 9 10 10 10 10 11 12 14 15 17 17 17 17 16 15 14 13 12 10 8 7 6 7 7 8 8 8 7 7 7 8 7 7 6 4 4
13 14 14 13 11 12 13 14 14 13 10 8 6 6 8 8 8 9 10 13 14 15 16 16 16 15 14 14 14 14 13 12 11 11 12 13 14 14 13 13 12 12 12 12 11 9 8 7 6
15 16 16 16 15 16 17 17 16 14 10 6 4 3 5 6 6 7 9 11 12 14 14 15 15 15 14 14 14 15 15 16 16 16 18 19 20 20 19 19 18 17 16 16 16 14 13 12 12
19 18 18 18 18 20 21 19 17 15 11 6 4 4 5 6 5 6 8 10 12 14 16 16 16 16 16 16 16 17 18 20 20 21 21 22 22 22 23 22 22 22 21 20 20 20 19 18 18
21 21 21 20 21 22 23 20 18 16 11 6 4 4 6 8 6 7 9 12 15 17 19 19 18 18 19 20 21 21 22 23 23 23 22 22 22 22 23 23 24 25 24 23 23 23 23 23 23
22 21 20 22 25 26 26 23 21 18 14 9 5 4 5 7 8 9 12 16 19 21 22 23 23 23 23 24 25 26 27 26 26 25 24 23 22 22 22 23 24 25 26 26 26 26 26 26 26
21 20 19 22 27 28 28 27 24 23 19 14 10 8 8 10 12 14 16 19 23 25 26 27 28 29 30 30 30 31 32 31 29 27 25 24 22 22 22 22 23 25 26 27 27 28 29 29 29
19 17 18 23 27 29 29 29 28 25 23 19 14 13 13 15 16 18 21 24 27 30 31 32 34 34 35 35 35 36 37 36 33 29 27 25 23 22 22 22 24 25 25 26 27 29 30 31 32
16 14 16 21 26 28 29 30 30 29 25 22 19 18 19 19 20 22 24 27 31 34 36 37 37 35 36 36 37 38 40 39 36 33 30 27 25 23 23 23 25 25 25 26 28 30 30 30 29
17 16 17 17 23 27 29 31 33 33 30 27 24 23 23 24 25 25 26 28 32 37 39 39 37 34 34 34 35 37 39 40 39 36 33 30 27 26 24 24 25 25 25 26 27 27 27 28 29
20 19 19 18 21 25 29 33 35 35 33 31 28 27 27 26 26 26 26 29 34 39 40 38 34 30 28 29 32 33 36 40 41 39 37 34 31 28 26 26 27 27 26 26 26 26 26 27 27
21 20 21 21 22 26 30 33 35 36 35 33 31 30 28 27 26 26 28 31 36 40 40 36 34 34 31 29 28 29 33 37 41 41 40 37 33 29 27 26 26 25 26 26 26 27 26 26 24
21 21 22 23 24 26 29 31 32 34 35 34 32 30 28 27 27 28 30 33 37 41 41 40 38 36 33 30 28 29 30 32 38 41 39 35 31 28 25 25 25 25 26 27 27 27 27 27 26
20 21 22 23 24 25 26 26 26 28 30 31 30 29 28 28 29 29 31 34 39 41 41 39 39 37 34 30 28 28 26 27 30 34 35 33 31 28 26 25 25 26 27 28 29 29 30 29 29
18 19 20 20 22 22 21 19 18 20 23 25 26 27 28 29 30 32 34 38 41 42 42 41 39 37 33 30 27 25 22 20 23 28 31 32 31 28 25 25 25 26 27 28 28 29 30 31 30
15 16 18 19 19 19 17 14 13 14 17 21 24 26 28 30 33 35 37 40 41 41 41 39 38 36 32 28 26 23 19 17 19 22 26 28 28 27 26 26 26 26 27 27 27 28 30 30 30
15 17 18 18 18 17 14 13 14 15 18 21 24 27 30 33 36 38 39 39 40 40 39 37 35 33 30 27 25 23 19 18 18 19 21 23 25 26 26 27 27 27 27 27 27 27 27 27 27
13 14 17 19 19 19 18 17 17 19 22 25 28 32 35 37 39 39 38 38 38 37 36 35 34 32 30 28 25 23 22 20 19 20 21 23 25 25 25 25 25 26 27 28 28 26 25 25 26
10 14 16 19 21 22 23 22 22 24 27 30 32 34 34 34 34 34 35 35 35 35 35 35 36 35 34 31 28 25 24 24 23 23 23 24 25 26 25 24 24 25 27 28 29 28 26 26 26
9 13 15 18 19 20 20 22 22 24 26 27 27 27 27 28 29 30 31 32 34 36 38 40 40 40 39 36 33 31 29 29 29 29 29 28 28 29 28 27 26 26 27 29 30 30 29 28 28
3 6 7 9 10 11 13 16 18 20 22 23 24 26 27 29 31 33 35 37 39 41 43 45 46 46 44 43 41 39 37 36 35 36 35 35 35 34 33 31 30 30 30 31 32 33 33 32 31
4 5 8 9 9 9 11 13 16 19 21 23 25 28 30 33 35 37 39 41 43 44 46 47 47 47 47 46 45 44 43 42 42 41 41 41 41 41 40 39 37 36 35 35 35 36 36 35 35
8 8 9 9 9 11 12 14 16 19 21 25 28 31 33 35 37 39 40 41 42 43 43 44 44 45 46 47 47 47 47 47 47 46 46 46 47 47 47 46 44 42 41 40 40 39 39 39 38
11 12 13 13 12 12 13 14 18 21 24 28 31 34 36 37 38 39 40 40 40 41 43 44 45 46 47 48 49 49 50 50 51 51 51 51 52 53 53 52 51 49 47 47 45 44 43 43 43
15 16 17 17 17 16 16 18 22 25 29 32 34 35 36 38 39 41 42 43 45 47 49 50 50 48 46 44 43 44 46 48 51 54 56 57 57 58 59 59 58 56 54 52 51 49 48 47 46
16 17 18 19 20 20 21 24 27 29 31 33 34 36 38 40 41 43 45 47 50 53 53 52 50 46 43 41 40 40 40 42 43 46 51 57 61 63 64 64 63 63 61 59 56 55 54 52 50
16 17 17 18 20 23 26 28 28 30 32 33 36 38 41 43 45 47 50 53 55 55 52 49 48 47 47 47 47 47 46 46 46 45 45 47 52 59 66 68 68 68 67 66 64 61 58 55 53
14 15 17 20 23 25 28 29 30 31 33 35 38 41 44 46 49 51 54 57 56 52 48 47 48 49 51 52 54 54 55 53 51 50 49 48 48 50 56 63 69 72 72 71 70 68 65 62 59
Wind_Direction
203 208 225 245 268 288 321 341 339 334 337 338 339 346 1 3 345 329 317 313 314 315 316 316 311 306 302 298 297 301 307 310 313 340 92 92 84 82 72 52 349 309 308 331 349 2 17 36 55
223 223 231 242 262 284 310 322 327 322 320 322 323 327 330 334 330 322 319 316 317 321 324 319 311 307 306 305 304 303 304 303 299 291 283 291 302 304 303 301 294 287 280 289 320 347 10 37 55
239 236 236 243 259 278 297 307 311 310 303 299 306 314 315 321 324 328 327 326 328 330 327 318 309 307 309 311 310 308 305 300 291 283 282 286 290 292 293 293 289 280 270 267 282 311 330 353 23
246 242 241 243 254 271 285 294 305 303 297 288 292 309 310 314 326 336 342 345 343 337 330 322 315 314 317 318 316 310 303 296 287 281 282 285 287 287 287 286 282 276 267 259 260 275 289 291 296
247 245 244 246 253 266 275 285 294 295 291 284 272 288 297 305 321 337 346 345 338 330 323 319 318 316 315 314 311 305 298 292 287 285 284 286 287 287 286 284 281 277 271 265 261 263 270 273 275
247 245 243 250 259 268 273 280 285 288 289 275 253 249 279 286 296 310 322 325 321 318 314 312 311 309 306 302 298 294 290 287 285 284 284 285 285 284 282 279 277 274 271 268 265 263 265 266 268
254 252 246 249 256 266 273 279 280 284 288 273 244 244 272 275 271 278 295 301 303 305 306 305 304 302 300 297 293 289 285 282 281 281 281 282 283 282 279 274 271 269 267 266 265 264 265 267 268
262 260 252 247 250 259 268 274 281 287 292 285 267 259 270 271 266 272 285 291 294 297 298 300 300 299 297 295 291 287 284 281 279 278 279 280 280 278 275 272 268 265 263 262 262 263 265 266 268
270 268 260 247 249 258 267 274 282 290 293 291 270 264 261 259 267 279 288 293 295 295 294 294 295 295 294 295 292 287 284 281 278 275 275 276 275 274 272 269 267 265 263 261 261 261 262 263 265
270 271 264 252 253 258 266 274 282 287 292 290 274 262 257 259 268 280 290 294 295 295 294 293 292 292 292 293 293 287 281 278 275 272 272 272 271 271 270 268 265 264 263 262 261 260 260 261 264
267 268 263 254 254 258 264 273 280 283 285 282 272 264 263 268 274 281 287 292 294 295 294 292 289 287 287 287 289 286 280 275 273 270 269 269 270 270 270 269 266 264 262 262 261 261 261 264 266
260 258 256 252 253 256 261 267 271 276 278 282 284 282 281 285 286 285 285 286 289 290 289 286 284 287 287 282 286 286 279 271 267 268 267 266 268 270 271 270 266 262 260 261 263 264 264 265 264
264 262 261 255 250 250 253 258 264 270 276 281 283 284 288 289 288 286 285 287 288 286 286 286 291 303 302 293 297 294 282 270 264 264 265 264 265 268 269 266 264 259 257 260 264 265 264 267 267
269 265 262 259 253 250 251 255 261 267 271 274 278 281 284 286 287 288 288 290 293 293 295 303 318 325 324 318 305 301 289 273 262 259 260 261 262 265 268 268 264 257 256 259 261 261 261 264 266
268 268 267 266 263 261 263 264 265 270 270 270 271 274 279 282 286 289 292 297 300 306 311 319 324 327 328 327 317 312 298 277 260 257 260 261 264 266 269 269 265 259 256 256 256 256 257 259 261
269 269 270 273 269 267 268 269 272 272 269 265 267 272 278 283 286 292 297 301 305 310 316 322 325 326 327 328 325 322 305 282 263 260 261 261 263 265 269 269 265 261 257 255 254 252 253 255 258
269 267 269 269 269 271 273 274 277 275 267 264 269 276 281 284 289 294 299 304 308 311 315 318 319 322 325 328 328 326 314 286 271 264 262 264 264 266 268 268 265 262 260 257 253 251 250 251 253
269 266 268 267 268 269 270 273 273 273 270 273 280 284 286 288 292 295 299 303 305 307 310 313 316 320 323 326 325 322 314 290 274 269 267 263 260 264 267 266 263 260 259 257 254 251 250 249 250
266 263 265 266 268 270 273 279 279 279 279 281 284 286 288 289 292 294 297 299 300 302 305 308 313 317 319 320 318 315 307 294 281 272 268 264 260 261 264 265 261 258 256 254 253 251 251 249 246
265 265 266 266 270 271 273 276 280 283 284 285 285 286 287 289 291 292 292 293 295 298 301 304 307 310 311 310 308 304 299 292 280 271 270 267 262 259 261 262 260 257 254 252 252 250 248 245 242
267 275 278 277 276 276 278 280 282 285 288 289 290 290 290 289 289 288 289 289 291 294 297 300 303 304 304 302 297 293 291 287 281 273 269 269 265 261 259 260 260 257 254 252 251 250 246 242 239
271 280 286 289 292 293 292 292 291 290 289 289 291 293 293 292 291 292 293 292 292 293 296 298 300 301 300 298 294 288 284 280 277 274 270 265 261 259 258 260 261 259 255 251 250 250 247 242 239
308 309 315 319 316 310 305 299 293 290 290 293 296 298 299 299 299 300 299 298 298 298 298 299 300 300 299 296 293 288 283 278 274 270 266 263 261 259 258 259 260 259 256 252 249 248 247 244 240
10 357 350 339 326 309 301 293 287 289 293 297 299 301 302 303 303 301 300 299 298 298 298 298 298 297 296 294 291 288 283 279 274 269 264 260 258 256 256 256 256 255 254 252 249 247 245 244 241
332 331 335 327 307 292 289 285 285 291 296 299 302 305 306 305 304 303 301 300 299 298 297 296 295 293 292 290 288 285 282 279 274 269 264 259 255 252 251 252 252 251 251 250 248 246 244 243 242
328 333 333 329 320 309 300 295 294 300 302 302 304 306 307 308 309 308 306 304 302 300 298 296 293 291 289 287 285 282 279 276 273 270 265 260 255 252 249 248 247 247 247 248 246 244 242 242 241
326 330 329 325 320 314 310 304 301 303 302 303 305 308 311 312 312 311 310 309 307 305 302 301 299 297 295 292 289 286 282 277 272 268 265 261 257 252 250 248 246 244 243 243 244 244 241 240 240
323 323 322 321 319 315 311 306 306 304 305 307 311 314 316 315 315 315 314 312 311 310 309 308 308 308 307 305 302 299 295 290 283 276 268 262 257 254 250 248 246 244 242 241 241 241 240 239 238
317 318 318 319 318 315 313 315 315 313 314 316 317 318 319 320 320 318 317 316 315 314 313 312 312 312 311 309 307 304 301 297 292 287 280 271 263 256 252 248 246 244 243 241 239 238 239 239 238
322 322 321 321 322 322 322 321 320 318 319 319 320 321 322 323 322 320 319 317 316 314 313 313 313 313 312 310 307 304 301 297 293 288 282 276 270 263 256 251 247 244 242 241 239 236 236 237 237
Height
5918 5918 5918 5919 5920 5920 5919 5919 5918 5918 5917 5917 5916 5916 5916 5917 5917 5919 5917 5915 5914 5913 5912 5911 5910 5910 5909 5908 5907 5906 5905 5905 5904 5904 5903 5903 5903 5903 5902 5902 5903 5902 5902 5902 5901 5900 5899 5898 5897
5919 5919 5919 5920 5920 5919 5920 5920 5919 5919 5918 5917 5917 5916 5916 5916 5916 5916 5915 5914 5913 5912 5911 5911 5910 5909 5908 5907 5906 5906 5905 5904 5904 5903 5903 5903 5903 5902 5902 5902 5901 5901 5901 5901 5901 5900 5899 5898 5897
5919 5919 5920 5920 5920 5920 5919 5919 5919 5919 5918 5917 5916 5916 5916 5916 5916 5915 5915 5914 5913 5912 5911 5910 5909 5908 5906 5905 5905 5904 5904 5903 5903 5903 5902 5902 5901 5901 5901 5901 5900 5900 5900 5900 5900 5900 5899 5898 5897
5918 5919 5920 5920 5919 5919 5918 5918 5918 5918 5918 5916 5915 5915 5916 5917 5916 5915 5914 5913 5912 5912 5911 5910 5908 5906 5905 5904 5903 5903 5902 5901 5901 5901 5901 5900 5900 5899 5899 5898 5898 5897 5897 5897 5897 5898 5898 5898 5897
5916 5917 5918 5918 5918 5917 5916 5916 5916 5916 5916 5915 5915 5914 5915 5916 5915 5913 5912 5912 5911 5911 5910 5908 5906 5905 5903 5902 5901 5900 5900 5899 5899 5898 5898 5897 5897 5896 5896 5896 5895 5895 5894 5894 5894 5895 5895 5896 5896
5914 5915 5916 5916 5916 5914 5914 5914 5915 5914 5914 5914 5913 5913 5914 5914 5913 5912 5911 5910 5909 5908 5907 5905 5903 5902 5900 5899 5898 5897 5896 5896 5895 5894 5894 5893 5892 5892 5891 5891 5890 5890 5890 5890 5890 5890 5891 5892 5892
5913 5912 5913 5913 5913 5911 5911 5911 5912 5912 5912 5912 5912 5912 5912 5913 5912 5910 5909 5907 5906 5905 5903 5902 5900 5899 5898 5896 5895 5894 5893 5892 5891 5890 5888 5888 5887 5886 5886 5886 5885 5885 5885 5886 5886 5886 5886 5886 5887
5908 5910 5910 5910 5909 5908 5908 5908 5908 5910 5910 5911 5911 5911 5911 5910 5909 5907 5906 5905 5903 5902 5900 5899 5897 5896 5894 5893 5891 5890 5889 5887 5886 5885 5883 5882 5882 5881 5880 5880 5880 5879 5879 5880 5880 5880 5880 5880 5880
5905 5907 5906 5906 5905 5905 5905 5905 5906 5907 5908 5908 5908 5909 5908 5906 5905 5904 5903 5902 5900 5898 5896 5895 5893 5891 5889 5888 5886 5885 5883 5882 5880 5879 5877 5877 5876 5875 5874 5874 5873 5873 5873 5874 5874 5874 5874 5874 5873
5902 5902 5903 5902 5902 5902 5902 5902 5903 5904 5905 5905 5905 5904 5903 5902 5902 5902 5900 5898 5895 5894 5892 5890 5888 5886 5884 5882 5880 5878 5876 5874 5873 5872 5870 5869 5869 5868 5868 5868 5867 5867 5867 5867 5868 5867 5867 5867 5866
5898 5899 5899 5899 5898 5898 5899 5899 5899 5899 5900 5900 5899 5898 5897 5898 5898 5898 5896 5894 5891 5888 5886 5882 5880 5878 5876 5874 5872 5870 5868 5866 5865 5864 5863 5862 5861 5861 5861 5861 5860 5860 5860 5861 5860 5860 5860 5860 5860
5894 5895 5894 5895 5894 5895 5895 5894 5893 5893 5894 5894 5895 5894 5894 5895 5894 5894 5892 5889 5886 5882 5878 5874 5870 5869 5866 5865 5863 5862 5860 5858 5857 5856 5855 5854 5854 5855 5855 5854 5854 5854 5854 5854 5854 5854 5853 5854 5854
5890 5891 5890 5890 5890 5889 5888 5887 5887 5887 5889 5890 5891 5890 5890 5889 5889 5889 5887 5885 5881 5876 5870 5864 5861 5860 5858 5856 5855 5853 5850 5848 5848 5848 5847 5847 5847 5848 5848 5848 5848 5847 5847 5848 5848 5848 5848 5848 5850
5886 5886 5885 5885 5884 5883 5881 5881 5882 5883 5884 5885 5885 5885 5884 5883 5883 5882 5881 5878 5874 5869 5863 5857 5854 5853 5851 5848 5846 5843 5840 5838 5837 5838 5838 5839 5839 5840 5840 5840 5841 5841 5841 5841 5842 5842 5843 5844 5845
5881 5881 5881 5881 5881 5880 5879 5879 5879 5879 5880 5881 5881 5880 5879 5878 5877 5876 5873 5871 5867 5861 5856 5853 5850 5847 5844 5841 5838 5833 5830 5828 5828 5829 5830 5831 5832 5832 5833 5833 5834 5834 5834 5835 5835 5836 5837 5838 5840
5877 5877 5877 5877 5876 5876 5877 5876 5876 5875 5876 5876 5876 5875 5874 5873 5871 5869 5867 5864 5860 5855 5851 5848 5844 5841 5838 5835 5831 5826 5822 5820 5820 5822 5823 5824 5825 5825 5826 5826 5827 5827 5827 5828 5829 5829 5831 5832 5833
5873 5873 5874 5873 5872 5873 5873 5872 5872 5871 5871 5872 5872 5871 5870 5868 5866 5863 5861 5858 5854 5850 5846 5843 5840 5836 5833 5830 5826 5821 5818 5816 5816 5817 5817 5818 5818 5818 5819 5820 5820 5820 5820 5821 5822 5822 5823 5825 5827
5870 5870 5870 5870 5869 5869 5869 5869 5869 5869 5869 5869 5868 5867 5865 5863 5860 5858 5855 5851 5848 5844 5841 5838 5835 5831 5828 5825 5822 5819 5816 5814 5813 5812 5812 5812 5811 5812 5813 5813 5813 5814 5814 5814 5815 5815 5816 5818 5821
5867 5867 5866 5866 5866 5866 5866 5866 5866 5866 5866 5865 5864 5862 5860 5857 5854 5851 5848 5845 5842 5839 5836 5833 5829 5826 5823 5821 5819 5816 5814 5812 5810 5808 5807 5806 5805 5805 5806 5806 5806 5806 5807 5808 5808 5809 5810 5812 5814
5864 5864 5863 5863 5863 5863 5863 5863 5864 5863 5862 5860 5858 5856 5853 5850 5847 5844 5841 5839 5836 5833 5830 5826 5823 5821 5818 5816 5814 5812 5810 5808 5806 5804 5803 5801 5800 5799 5798 5798 5798 5799 5800 5801 5802 5803 5804 5806 5808
5862 5861 5861 5860 5860 5860 5861 5861 5860 5859 5857 5854 5852 5849 5845 5842 5840 5837 5834 5832 5829 5825 5822 5819 5816 5813 5811 5809 5808 5806 5805 5803 5801 5800 5798 5796 5795 5793 5792 5791 5791 5791 5792 5794 5795 5796 5798 5800 5802
5860 5859 5859 5857 5857 5857 5857 5856 5856 5854 5851 5848 5845 5842 5838 5835 5833 5830 5827 5824 5821 5817 5814 5811 5808 5805 5803 5801 5800 5798 5797 5796 5794 5793 5792 5790 5789 5787 5785 5785 5784 5784 5785 5786 5787 5789 5791 5794 5796
5859 5858 5857 5856 5854 5854 5853 5852 5851 5848 5845 5843 5840 5836 5833 5829 5826 5823 5820 5816 5812 5808 5805 5801 5798 5796 5793 5791 5790 5788 5787 5785 5784 5784 5783 5781 5780 5779 5778 5777 5777 5777 5778 5778 5779 5781 5783 5786 5789
5858 5857 5856 5854 5853 5853 5852 5851 5847 5844 5841 5838 5835 5831 5827 5824 5820 5817 5813 5808 5804 5800 5796 5792 5788 5785 5781 5778 5776 5774 5773 5772 5771 5770 5770 5769 5768 5768 5768 5768 5768 5768 5769 5769 5770 5772 5774 5777 5780
5857 5856 5855 5853 5852 5851 5850 5848 5845 5841 5837 5834 5830 5825 5821 5817 5812 5808 5804 5800 5795 5791 5787 5782 5778 5774 5769 5765 5761 5758 5756 5755 5754 5754 5754 5754 5753 5753 5754 5755 5756 5757 5758 5759 5760 5762 5764 5767 5771
5855 5854 5853 5851 5850 5848 5847 5844 5842 5837 5833 5829 5825 5820 5815 5810 5805 5800 5795 5790 5786 5781 5776 5771 5766 5761 5756 5751 5747 5743 5740 5737 5736 5736 5736 5736 5736 5737 5737 5738 5740 5743 5745 5747 5749 5751 5754 5756 5760
5853 5851 5850 5848 5846 5844 5843 5840 5837 5833 5829 5824 5819 5814 5809 5804 5798 5792 5786 5779 5773 5767 5760 5754 5749 5744 5740 5735 5731 5726 5723 5720 5718 5717 5716 5716 5717 5718 5719 5720 5723 5726 5729 5732 5735 5738 5741 5744 5748
5851 5849 5847 5844 5842 5840 5838 5835 5832 5827 5822 5817 5812 5807 5801 5795 5788 5781 5774 5766 5758 5750 5742 5735 5729 5724 5720 5717 5714 5710 5706 5702 5699 5698 5696 5696 5696 5697 5698 5700 5703 5707 5711 5715 5719 5723 5727 5731 5735
5848 5846 5844 5841 5839 5836 5832 5830 5824 5819 5814 5809 5804 5798 5791 5784 5776 5768 5760 5751 5743 5734 5726 5720 5713 5708 5703 5699 5695 5692 5688 5684 5681 5679 5677 5676 5675 5675 5676 5679 5682 5685 5690 5695 5701 5705 5710 5714 5720
5846 5843 5841 5839 5835 5831 5826 5824 5816 5811 5806 5801 5795 5788 5781 5773 5765 5756 5747 5739 5730 5721 5714 5708 5701 5695 5689 5683 5677 5672 5668 5665 5662 5659 5657 5655 5655 5654 5654 5656 5659 5663 5667 5673 5680 5686 5692 5697 5704